Time,TemperatureF,DewpointF,PressureIn,WindDirection,WindDirectionDegrees,WindSpeedMPH,WindSpeedGustMPH,Humidity,HourlyPrecipIn,Conditions,Clouds,dailyrainin,SoftwareType,DateUTC
2013-02-17 00:11:00,33.0,-99.9,-100.00,North,-999,-999.0,-999.0,-999,0.02,,,0.13,,2013-02-17 07:11:00,
2013-02-17 00:22:00,33.0,-99.9,-100.00,North,-999,-999.0,-999.0,-999,0.02,,,0.13,,2013-02-17 07:22:00,
2013-02-17 00:32:00,33.0,-99.9,-100.00,North,-999,-999.0,-999.0,-999,0.02,,,0.13,,2013-02-17 07:32:00,
2013-02-17 00:42:00,33.0,-99.9,-100.00,North,-999,-999.0,-999.0,-999,0.02,,,0.13,,2013-02-17 07:42:00,
2013-02-17 01:11:00,34.0,-99.9,-100.00,North,-999,-999.0,-999.0,-999,0.00,,,0.13,,2013-02-17 08:11:00,
2013-02-17 01:22:00,34.0,-99.9,-100.00,North,-999,-999.0,-999.0,-999,0.00,,,0.13,,2013-02-17 08:22:00,
2013-02-17 01:32:00,34.0,-99.9,-100.00,North,-999,-999.0,-999.0,-999,0.00,,,0.13,,2013-02-17 08:32:00,
2013-02-17 01:42:00,34.0,-99.9,-100.00,North,-999,-999.0,-999.0,-999,0.00,,,0.13,,2013-02-17 08:42:00,
2013-02-17 02:11:00,34.0,-99.9,-100.00,North,-999,-999.0,-999.0,-999,0.00,,,0.12,,2013-02-17 09:11:00,
2013-02-17 02:22:00,34.0,-99.9,-100.00,North,-999,-999.0,-999.0,-999,0.00,,,0.12,,2013-02-17 09:22:00,
2013-02-17 02:32:00,34.0,-99.9,-100.00,North,-999,-999.0,-999.0,-999,0.00,,,0.12,,2013-02-17 09:32:00,
2013-02-17 02:42:00,34.0,-99.9,-100.00,North,-999,-999.0,-999.0,-999,0.00,,,0.12,,2013-02-17 09:42:00,
2013-02-17 03:11:00,33.0,-99.9,-100.00,North,-999,-999.0,-999.0,-999,0.00,,,0.12,,2013-02-17 10:11:00,
2013-02-17 03:22:00,33.0,-99.9,-100.00,North,-999,-999.0,-999.0,-999,0.00,,,0.12,,2013-02-17 10:22:00,
2013-02-17 03:32:00,33.0,-99.9,-100.00,North,-999,-999.0,-999.0,-999,0.00,,,0.12,,2013-02-17 10:32:00,
2013-02-17 03:42:00,33.0,-99.9,-100.00,North,-999,-999.0,-999.0,-999,0.00,,,0.12,,2013-02-17 10:42:00,
2013-02-17 04:11:00,33.0,-99.9,-100.00,North,-999,-999.0,-999.0,-999,0.00,,,0.13,,2013-02-17 11:11:00,
2013-02-17 04:22:00,33.0,-99.9,-100.00,North,-999,-999.0,-999.0,-999,0.00,,,0.13,,2013-02-17 11:22:00,
2013-02-17 04:32:00,33.0,-99.9,-100.00,North,-999,-999.0,-999.0,-999,0.00,,,0.13,,2013-02-17 11:32:00,
2013-02-17 04:42:00,33.0,-99.9,-100.00,North,-999,-999.0,-999.0,-999,0.00,,,0.13,,2013-02-17 11:42:00,
2013-02-17 05:12:00,33.0,-99.9,-100.00,North,-999,-999.0,-999.0,-999,0.00,,,0.13,,2013-02-17 12:12:00,
2013-02-17 05:22:00,33.0,-99.9,-100.00,North,-999,-999.0,-999.0,-999,0.00,,,0.13,,2013-02-17 12:22:00,
2013-02-17 05:32:00,33.0,-99.9,-100.00,North,-999,-999.0,-999.0,-999,0.00,,,0.13,,2013-02-17 12:32:00,
2013-02-17 05:42:00,33.0,-99.9,-100.00,North,-999,-999.0,-999.0,-999,0.00,,,0.13,,2013-02-17 12:42:00,
2013-02-17 06:12:00,32.0,-99.9,-100.00,North,-999,-999.0,-999.0,-999,0.02,,,0.14,,2013-02-17 13:12:00,
2013-02-17 06:22:00,32.0,-99.9,-100.00,North,-999,-999.0,-999.0,-999,0.02,,,0.14,,2013-02-17 13:22:00,
2013-02-17 06:32:00,32.0,-99.9,-100.00,North,-999,-999.0,-999.0,-999,0.02,,,0.14,,2013-02-17 13:32:00,
2013-02-17 06:42:00,32.0,-99.9,-100.00,North,-999,-999.0,-999.0,-999,0.02,,,0.14,,2013-02-17 13:42:00,
2013-02-17 07:12:00,32.0,-99.9,-100.00,North,-999,-999.0,-999.0,-999,-99.99,,,0.13,,2013-02-17 14:12:00,
2013-02-17 07:22:00,32.0,-99.9,-100.00,North,-999,-999.0,-999.0,-999,-99.99,,,0.13,,2013-02-17 14:22:00,
2013-02-17 07:32:00,32.0,-99.9,-100.00,North,-999,-999.0,-999.0,-999,-99.99,,,0.13,,2013-02-17 14:32:00,
2013-02-17 07:42:00,32.0,-99.9,-100.00,North,-999,-999.0,-999.0,-999,-99.99,,,0.13,,2013-02-17 14:42:00,
2013-02-17 08:11:00,32.0,-99.9,-100.00,North,-999,-999.0,-999.0,-999,0.00,,,0.12,,2013-02-17 15:11:00,
2013-02-17 08:22:00,32.0,-99.9,-100.00,North,-999,-999.0,-999.0,-999,0.00,,,0.12,,2013-02-17 15:22:00,
2013-02-17 08:32:00,32.0,-99.9,-100.00,North,-999,-999.0,-999.0,-999,0.00,,,0.12,,2013-02-17 15:32:00,
2013-02-17 08:42:00,32.0,-99.9,-100.00,North,-999,-999.0,-999.0,-999,0.00,,,0.12,,2013-02-17 15:42:00,
2013-02-17 09:12:00,33.0,-99.9,-100.00,North,-999,-999.0,-999.0,-999,0.01,,,0.14,,2013-02-17 16:12:00,
2013-02-17 09:22:00,33.0,-99.9,-100.00,North,-999,-999.0,-999.0,-999,0.01,,,0.14,,2013-02-17 16:22:00,
2013-02-17 09:32:00,33.0,-99.9,-100.00,North,-999,-999.0,-999.0,-999,0.01,,,0.14,,2013-02-17 16:32:00,
2013-02-17 09:42:00,33.0,-99.9,-100.00,North,-999,-999.0,-999.0,-999,0.01,,,0.14,,2013-02-17 16:42:00,
2013-02-17 10:11:00,34.0,-99.9,-100.00,North,-999,-999.0,-999.0,-999,-99.99,,,0.13,,2013-02-17 17:11:00,
2013-02-17 10:22:00,34.0,-99.9,-100.00,North,-999,-999.0,-999.0,-999,-99.99,,,0.13,,2013-02-17 17:22:00,
2013-02-17 10:32:00,34.0,-99.9,-100.00,North,-999,-999.0,-999.0,-999,-99.99,,,0.13,,2013-02-17 17:32:00,
2013-02-17 10:42:00,34.0,-99.9,-100.00,North,-999,-999.0,-999.0,-999,-99.99,,,0.13,,2013-02-17 17:42:00,
2013-02-17 11:11:00,35.0,-99.9,-100.00,North,-999,-999.0,-999.0,-999,0.01,,,0.13,,2013-02-17 18:11:00,
2013-02-17 11:22:00,35.0,-99.9,-100.00,North,-999,-999.0,-999.0,-999,0.01,,,0.13,,2013-02-17 18:22:00,
2013-02-17 11:33:00,35.0,-99.9,-100.00,North,-999,-999.0,-999.0,-999,0.01,,,0.13,,2013-02-17 18:33:00,
2013-02-17 11:42:00,35.0,-99.9,-100.00,North,-999,-999.0,-999.0,-999,0.01,,,0.13,,2013-02-17 18:42:00,
2013-02-17 12:11:00,35.0,-99.9,-100.00,North,-999,-999.0,-999.0,-999,0.00,,,0.14,,2013-02-17 19:11:00,
2013-02-17 12:22:00,35.0,-99.9,-100.00,North,-999,-999.0,-999.0,-999,0.00,,,0.14,,2013-02-17 19:22:00,
2013-02-17 12:32:00,35.0,-99.9,-100.00,North,-999,-999.0,-999.0,-999,0.00,,,0.14,,2013-02-17 19:32:00,
2013-02-17 12:42:00,35.0,-99.9,-100.00,North,-999,-999.0,-999.0,-999,0.00,,,0.14,,2013-02-17 19:42:00,
2013-02-17 13:11:00,37.0,-99.9,-100.00,North,-999,-999.0,-999.0,-999,0.01,,,0.14,,2013-02-17 20:11:00,
2013-02-17 13:22:00,37.0,-99.9,-100.00,North,-999,-999.0,-999.0,-999,0.01,,,0.14,,2013-02-17 20:22:00,
2013-02-17 13:32:00,37.0,-99.9,-100.00,North,-999,-999.0,-999.0,-999,0.01,,,0.14,,2013-02-17 20:32:00,
2013-02-17 13:43:00,37.0,-99.9,-100.00,North,-999,-999.0,-999.0,-999,0.01,,,0.14,,2013-02-17 20:43:00,
2013-02-17 14:11:00,36.0,-99.9,-100.00,North,-999,-999.0,-999.0,-999,0.02,,,0.16,,2013-02-17 21:11:00,
2013-02-17 14:22:00,36.0,-99.9,-100.00,North,-999,-999.0,-999.0,-999,0.02,,,0.16,,2013-02-17 21:22:00,
2013-02-17 14:32:00,36.0,-99.9,-100.00,North,-999,-999.0,-999.0,-999,0.02,,,0.16,,2013-02-17 21:32:00,
2013-02-17 14:42:00,36.0,-99.9,-100.00,North,-999,-999.0,-999.0,-999,0.02,,,0.16,,2013-02-17 21:42:00,
2013-02-17 15:12:00,35.0,-99.9,-100.00,North,-999,-999.0,-999.0,-999,0.01,,,0.17,,2013-02-17 22:12:00,
2013-02-17 15:22:00,35.0,-99.9,-100.00,North,-999,-999.0,-999.0,-999,0.01,,,0.17,,2013-02-17 22:22:00,
2013-02-17 15:32:00,35.0,-99.9,-100.00,North,-999,-999.0,-999.0,-999,0.01,,,0.17,,2013-02-17 22:32:00,
2013-02-17 15:42:00,35.0,-99.9,-100.00,North,-999,-999.0,-999.0,-999,0.01,,,0.17,,2013-02-17 22:42:00,
2013-02-17 16:11:00,35.0,-99.9,-100.00,North,-999,-999.0,-999.0,-999,0.02,,,0.19,,2013-02-17 23:11:00,
2013-02-17 16:22:00,35.0,-99.9,-100.00,North,-999,-999.0,-999.0,-999,0.02,,,0.19,,2013-02-17 23:22:00,
2013-02-17 16:32:00,35.0,-99.9,-100.00,North,-999,-999.0,-999.0,-999,0.02,,,0.19,,2013-02-17 23:32:00,
2013-02-17 16:42:00,35.0,-99.9,-100.00,North,-999,-999.0,-999.0,-999,0.02,,,0.19,,2013-02-17 23:42:00,
2013-02-17 17:12:00,32.0,-99.9,-100.00,North,-999,-999.0,-999.0,-999,0.03,,,0.23,,2013-02-18 00:12:00,
2013-02-17 17:22:00,32.0,-99.9,-100.00,North,-999,-999.0,-999.0,-999,0.03,,,0.23,,2013-02-18 00:22:00,
2013-02-17 17:32:00,32.0,-99.9,-100.00,North,-999,-999.0,-999.0,-999,0.03,,,0.23,,2013-02-18 00:32:00,
2013-02-17 17:42:00,32.0,-99.9,-100.00,North,-999,-999.0,-999.0,-999,0.03,,,0.23,,2013-02-18 00:42:00,
2013-02-17 18:12:00,31.0,-99.9,-100.00,North,-999,-999.0,-999.0,-999,0.12,,,0.35,,2013-02-18 01:12:00,
2013-02-17 18:22:00,31.0,-99.9,-100.00,North,-999,-999.0,-999.0,-999,0.12,,,0.35,,2013-02-18 01:22:00,
2013-02-17 18:32:00,31.0,-99.9,-100.00,North,-999,-999.0,-999.0,-999,0.12,,,0.35,,2013-02-18 01:32:00,
2013-02-17 18:42:00,31.0,-99.9,-100.00,North,-999,-999.0,-999.0,-999,0.12,,,0.35,,2013-02-18 01:42:00,
2013-02-17 19:11:00,31.0,-99.9,-100.00,North,-999,-999.0,-999.0,-999,0.05,,,0.39,,2013-02-18 02:11:00,
2013-02-17 19:22:00,31.0,-99.9,-100.00,North,-999,-999.0,-999.0,-999,0.05,,,0.39,,2013-02-18 02:22:00,
2013-02-17 19:32:00,31.0,-99.9,-100.00,North,-999,-999.0,-999.0,-999,0.05,,,0.39,,2013-02-18 02:32:00,
2013-02-17 19:42:00,31.0,-99.9,-100.00,North,-999,-999.0,-999.0,-999,0.05,,,0.39,,2013-02-18 02:42:00,
2013-02-17 20:12:00,31.0,-99.9,-100.00,North,-999,-999.0,-999.0,-999,0.01,,,0.36,,2013-02-18 03:12:00,
2013-02-17 20:22:00,31.0,-99.9,-100.00,North,-999,-999.0,-999.0,-999,0.01,,,0.36,,2013-02-18 03:22:00,
2013-02-17 20:32:00,31.0,-99.9,-100.00,North,-999,-999.0,-999.0,-999,0.01,,,0.36,,2013-02-18 03:32:00,
2013-02-17 20:42:00,31.0,-99.9,-100.00,North,-999,-999.0,-999.0,-999,0.01,,,0.36,,2013-02-18 03:42:00,
2013-02-17 21:11:00,31.0,-99.9,-100.00,North,-999,-999.0,-999.0,-999,0.01,,,0.33,,2013-02-18 04:11:00,
2013-02-17 21:22:00,31.0,-99.9,-100.00,North,-999,-999.0,-999.0,-999,0.01,,,0.33,,2013-02-18 04:22:00,
2013-02-17 21:32:00,31.0,-99.9,-100.00,North,-999,-999.0,-999.0,-999,0.01,,,0.33,,2013-02-18 04:32:00,
2013-02-17 21:42:00,31.0,-99.9,-100.00,North,-999,-999.0,-999.0,-999,0.01,,,0.33,,2013-02-18 04:42:00,
2013-02-17 22:11:00,30.0,-99.9,-100.00,North,-999,-999.0,-999.0,-999,0.13,,,0.46,,2013-02-18 05:11:00,
2013-02-17 22:22:00,30.0,-99.9,-100.00,North,-999,-999.0,-999.0,-999,0.13,,,0.46,,2013-02-18 05:22:00,
2013-02-17 22:32:00,30.0,-99.9,-100.00,North,-999,-999.0,-999.0,-999,0.13,,,0.46,,2013-02-18 05:32:00,
2013-02-17 22:42:00,30.0,-99.9,-100.00,North,-999,-999.0,-999.0,-999,0.13,,,0.46,,2013-02-18 05:42:00,
2013-02-17 23:11:00,29.0,-99.9,-100.00,North,-999,-999.0,-999.0,-999,0.08,,,0.52,,2013-02-18 06:11:00,
2013-02-17 23:22:00,29.0,-99.9,-100.00,North,-999,-999.0,-999.0,-999,0.08,,,0.52,,2013-02-18 06:22:00,
2013-02-17 23:32:00,29.0,-99.9,-100.00,North,-999,-999.0,-999.0,-999,0.08,,,0.52,,2013-02-18 06:32:00,
2013-02-17 23:42:00,29.0,-99.9,-100.00,North,-999,-999.0,-999.0,-999,0.08,,,0.52,,2013-02-18 06:42:00,